Dades meteomassalio
Diari Summary for Juny 19, 2017 Units:  Metric    English   Both
« Previous Day
Next Day »
Diari Semanal Mensual Anual Personalitzat
  Maxima: Minima: Mijana:
Temperatura: -17.8 °C -7.8 °C -2.8 °C
Rosada: -17.8 °C -11.3 °C -9.5 °C
Humitat: Humidity % 35 % 48 %
Velocitat del vent: 0 km/h 0 km/h 19.6 km/h
Racha vent: 0 km/h - -
Vent:- - SE
Pressio: 0 hPa 34337.4 hPa -
Pluja: 0 mm    
Historical Graphs
 
 
Tabular Data for Juny 19, 2017
Time Temperature Dew Point Pressure Wind Wind Speed Wind Gust Humidity Rainfall Rate (Hourly) solar Conditions
-17.8 °C -17.8 °C 0 hPa Calm     Humidity % 0 mm SolarRadiationWatts/m^2 W/m2 Conditions
00:03 -3.6 °C -10.5 °C 34371.3 hPa South 6 km/h   46 % 0 mm 0.0 W/m2 CLR
00:07 -3.7 °C -10.6 °C 34371.3 hPa Calm     46 % 0 mm 0.0 W/m2 CLR
00:12 -3.7 °C -10.8 °C 34371.3 hPa Calm     45 % 0 mm 0.0 W/m2 CLR
00:18 -3.7 °C -10.8 °C 34371.3 hPa SSE 12.9 km/h 12.9 km/h 45 % 0 mm 0.0 W/m2 CLR
00:23 -3.7 °C -10.8 °C 34371.3 hPa SE 11.9 km/h 11.9 km/h 45 % 0 mm 0.0 W/m2 CLR
00:28 -3.8 °C -10.7 °C 34371.3 hPa Calm     46 % 0 mm 0.0 W/m2 CLR
00:33 -3.8 °C -10.8 °C 34371.3 hPa Calm     46 % 0 mm 0.0 W/m2 CLR
00:38 -3.9 °C -10.8 °C 34371.3 hPa Calm     46 % 0 mm 0.0 W/m2 CLR
00:43 -4 °C -10.9 °C 34371.3 hPa Calm     46 % 0 mm 0.0 W/m2 CLR
00:48 -4 °C -10.9 °C 34371.3 hPa Calm     46 % 0 mm 0.0 W/m2 CLR
00:53 -4 °C -11.1 °C 34371.3 hPa SSE 15 km/h 15 km/h 45 % 0 mm 0.0 W/m2 CLR
00:58 -3.9 °C -11 °C 34371.3 hPa SE 15 km/h 15 km/h 45 % 0 mm 0.0 W/m2 CLR
01:03 -3.9 °C -11 °C 34371.3 hPa SSE 11.9 km/h 11.9 km/h 45 % 0 mm 0.0 W/m2 CLR
01:08 -4 °C -11.1 °C 34371.3 hPa Calm     45 % 0 mm 0.0 W/m2 CLR
01:13 -4.1 °C -11.2 °C 34371.3 hPa Calm     45 % 0 mm 0.0 W/m2 CLR
01:18 -4.2 °C -11.1 °C 34371.3 hPa Calm     46 % 0 mm 0.0 W/m2 CLR
01:24 -4.2 °C -11.1 °C 34371.3 hPa Calm     46 % 0 mm 0.0 W/m2 CLR
01:29 -4.3 °C -11 °C 34371.3 hPa Calm     47 % 0 mm 0.0 W/m2 CLR
01:34 -4.5 °C -11.2 °C 34371.3 hPa Calm     47 % 0 mm 0.0 W/m2 CLR
01:39 -4.7 °C -11.2 °C 34371.3 hPa Calm     48 % 0 mm 0.0 W/m2 CLR
01:44 -4.6 °C -11.3 °C 34371.3 hPa Calm     47 % 0 mm 0.0 W/m2 CLR
01:49 -4.5 °C -11.2 °C 34371.3 hPa Calm     47 % 0 mm 0.0 W/m2 CLR
01:54 -4.5 °C -11 °C 34384.8 hPa Calm     48 % 0 mm 0.0 W/m2 CLR
01:59 -4.6 °C -11.1 °C 34384.8 hPa Calm     48 % 0 mm 0.0 W/m2 CLR
02:04 -4.7 °C -11 °C 34384.8 hPa Calm     49 % 0 mm 0.0 W/m2 CLR
02:09 -4.8 °C -11.1 °C 34384.8 hPa Calm     49 % 0 mm 0.0 W/m2 CLR
02:14 -4.9 °C -10.9 °C 34384.8 hPa Calm     51 % 0 mm 0.0 W/m2 CLR
02:19 -5.1 °C -11 °C 34384.8 hPa Calm     51 % 0 mm 0.0 W/m2 CLR
02:24 -5.2 °C -11.1 °C 34384.8 hPa Calm     51 % 0 mm 0.0 W/m2 CLR
02:29 -5.3 °C -11.1 °C 34384.8 hPa Calm     52 % 0 mm 0.0 W/m2 CLR
02:34 -5.4 °C -11.2 °C 34384.8 hPa Calm     52 % 0 mm 0.0 W/m2 CLR
02:39 -5.4 °C -11.2 °C 34384.8 hPa Calm     52 % 0 mm 0.0 W/m2 CLR
02:44 -5.4 °C -11.2 °C 34384.8 hPa Calm     52 % 0 mm 0.0 W/m2 CLR
02:49 -5.4 °C -10.7 °C 34384.8 hPa Calm     55 % 0 mm 0.0 W/m2 CLR
02:54 -5.6 °C -10.7 °C 34384.8 hPa Calm     56 % 0 mm 0.0 W/m2 CLR
02:59 -5.8 °C -10.9 °C 34384.8 hPa Calm     56 % 0 mm 0.0 W/m2 CLR
03:04 -5.9 °C -11 °C 34384.8 hPa Calm     56 % 0 mm 0.0 W/m2 CLR
03:09 -6 °C -11.2 °C 34384.8 hPa Calm     55 % 0 mm 0.0 W/m2 CLR
03:14 -6 °C -10.8 °C 34384.8 hPa Calm     58 % 0 mm 0.0 W/m2 CLR
03:19 -6.1 °C -10.9 °C 34384.8 hPa Calm     58 % 0 mm 0.0 W/m2 CLR
03:24 -6.2 °C -10.9 °C 34384.8 hPa Calm     58 % 0 mm 0.0 W/m2 CLR
03:29 -6.3 °C -10.9 °C 34384.8 hPa Calm     59 % 0 mm 0.0 W/m2 CLR
03:34 -6.4 °C -10.9 °C 34384.8 hPa Calm     60 % 0 mm 0.0 W/m2 CLR
03:39 -6.4 °C -11 °C 34384.8 hPa Calm     59 % 0 mm 0.0 W/m2 CLR
03:44 -6.5 °C -10.9 °C 34384.8 hPa Calm     60 % 0 mm 0.0 W/m2 CLR
03:49 -6.6 °C -10.9 °C 34384.8 hPa Calm     61 % 0 mm 0.0 W/m2 CLR
03:54 -6.6 °C -11 °C 34384.8 hPa Calm     60 % 0 mm 0.0 W/m2 CLR
03:59 -6.6 °C -10.9 °C 34384.8 hPa Calm     61 % 0 mm 0.0 W/m2 CLR
04:04 -6.7 °C -10.8 °C 34371.3 hPa Calm     62 % 0 mm 0.0 W/m2 CLR
04:09 -6.7 °C -10.9 °C 34384.8 hPa Calm     62 % 0 mm 0.0 W/m2 CLR
04:14 -6.8 °C -10.9 °C 34371.3 hPa Calm     62 % 0 mm 0.0 W/m2 CLR
04:19 -6.8 °C -10.8 °C 34371.3 hPa Calm     63 % 0 mm 0.0 W/m2 CLR
04:24 -6.8 °C -10.9 °C 34384.8 hPa Calm     63 % 0 mm 0.0 W/m2 CLR
04:29 -6.9 °C -10.8 °C 34371.3 hPa Calm     64 % 0 mm 0.0 W/m2 CLR
04:34 -7 °C -10.9 °C 34371.3 hPa Calm     64 % 0 mm 0.0 W/m2 CLR
04:39 -7.1 °C -10.8 °C 34371.3 hPa Calm     65 % 0 mm 0.0 W/m2 CLR
04:44 -7.1 °C -10.8 °C 34371.3 hPa Calm     65 % 0 mm 0.0 W/m2 CLR
04:49 -7.2 °C -10.8 °C 34371.3 hPa Calm     66 % 0 mm 0.0 W/m2 CLR
04:54 -7.2 °C -10.9 °C 34371.3 hPa Calm     65 % 0 mm 0.0 W/m2 CLR
04:59 -7.2 °C -10.8 °C 34371.3 hPa Calm     66 % 0 mm 0.0 W/m2 CLR
05:04 -7.2 °C -10.8 °C 34371.3 hPa Calm     66 % 0 mm 0.0 W/m2 CLR
05:09 -7.2 °C -10.9 °C 34371.3 hPa Calm     65 % 0 mm 0.0 W/m2 CLR
05:14 -7.2 °C -10.9 °C 34371.3 hPa Calm     65 % 0 mm 0.0 W/m2 CLR
05:19 -7.2 °C -10.9 °C 34371.3 hPa Calm     65 % 0 mm 0.0 W/m2 CLR
05:24 -7.3 °C -10.9 °C 34371.3 hPa Calm     66 % 0 mm 0.0 W/m2 CLR
05:29 -7.3 °C -10.9 °C 34371.3 hPa Calm     66 % 0 mm 0.0 W/m2 CLR
05:35 -7.4 °C -10.9 °C 34371.3 hPa Calm     67 % 0 mm 0.0 W/m2 CLR
05:39 -7.4 °C -10.9 °C 34371.3 hPa Calm     67 % 0 mm 0.0 W/m2 CLR
05:45 -7.4 °C -10.9 °C 34384.8 hPa Calm     67 % 0 mm 0.0 W/m2 CLR
05:50 -7.6 °C -10.9 °C 34384.8 hPa Calm     68 % 0 mm 0.0 W/m2 CLR
05:55 -7.6 °C -10.9 °C 34384.8 hPa Calm     68 % 0 mm 0.0 W/m2 CLR
06:00 -7.6 °C -11 °C 34371.3 hPa Calm     67 % 0 mm 0.0 W/m2 CLR
06:05 -7.6 °C -11.2 °C 34384.8 hPa Calm     66 % 0 mm 0.0 W/m2 CLR
06:10 -7.6 °C -11.1 °C 34384.8 hPa Calm     66 % 0 mm 0.0 W/m2 CLR
06:15 -7.5 °C -10.9 °C 34384.8 hPa Calm     67 % 0 mm 0.0 W/m2 CLR
06:20 -7.6 °C -11 °C 34384.8 hPa Calm     67 % 0 mm 0.0 W/m2 OVC
06:25 -7.6 °C -11.1 °C 34384.8 hPa Calm     67 % 0 mm 0.0 W/m2 OVC
06:30 -7.6 °C -11.1 °C 34384.8 hPa Calm     67 % 0 mm 5.0 W/m2 OVC
06:35 -7.7 °C -11.2 °C 34384.8 hPa Calm     67 % 0 mm 9.0 W/m2 BKN
06:40 -7.7 °C -11.2 °C 34384.8 hPa Calm     67 % 0 mm 11.0 W/m2 BKN
06:45 -7.7 °C -11.2 °C 34395 hPa Calm     67 % 0 mm 14.0 W/m2 BKN
06:50 -7.7 °C -11 °C 34395 hPa Calm     68 % 0 mm 16.0 W/m2 BKN
06:55 -7.7 °C -11.1 °C 34395 hPa Calm     68 % 0 mm 19.0 W/m2 BKN
07:00 -7.7 °C -11.1 °C 34395 hPa Calm     68 % 0 mm 23.0 W/m2 BKN
07:05 -7.8 °C -11 °C 34395 hPa Calm     69 % 0 mm 28.0 W/m2 BKN
07:10 -7.8 °C -11 °C 34395 hPa Calm     69 % 0 mm 39.0 W/m2 BKN
07:15 -7.7 °C -10.9 °C 34395 hPa Calm     69 % 0 mm 49.0 W/m2 SCT
07:20 -7.6 °C -10.9 °C 34405.1 hPa Calm     68 % 0 mm 58.0 W/m2 SCT
07:25 -7.4 °C -10.9 °C 34405.1 hPa Calm     67 % 0 mm 69.0 W/m2 FEW
07:30 -7.3 °C -10.9 °C 34405.1 hPa Calm     66 % 0 mm 81.0 W/m2 FEW
07:35 -7.1 °C -10.8 °C 34405.1 hPa Calm     65 % 0 mm 95.0 W/m2 FEW
07:40 -7 °C -10.9 °C 34405.1 hPa Calm     64 % 0 mm 107.0 W/m2 CLR
07:45 -6.8 °C -10.7 °C 34405.1 hPa Calm     64 % 0 mm 121.0 W/m2 CLR
07:50 -6.6 °C -10.7 °C 34405.1 hPa Calm     63 % 0 mm 137.0 W/m2 CLR
07:55 -6.4 °C -10.4 °C 34418.7 hPa Calm     63 % 0 mm 155.0 W/m2 CLR
08:00 -6.2 °C -10.5 °C 34418.7 hPa Calm     61 % 0 mm 171.0 W/m2 CLR
08:05 -5.9 °C -10.3 °C 34418.7 hPa Calm     61 % 0 mm 186.0 W/m2 CLR
08:10 -5.7 °C -10.2 °C 34418.7 hPa Calm     60 % 0 mm 200.0 W/m2 CLR
08:15 -5.4 °C -10.1 °C 34418.7 hPa Calm     59 % 0 mm 218.0 W/m2 CLR
08:20 -5.2 °C -10 °C 34418.7 hPa Calm     58 % 0 mm 234.0 W/m2 CLR
08:25 -5 °C -9.7 °C 34418.7 hPa Calm     59 % 0 mm 248.0 W/m2 CLR
08:30 -4.7 °C -9.7 °C 34418.7 hPa Calm     57 % 0 mm 262.0 W/m2 CLR
08:35 -4.4 °C -9.3 °C 34418.7 hPa Calm     58 % 0 mm 276.0 W/m2 CLR
08:40 -4 °C -8.9 °C 34405.1 hPa Calm     58 % 0 mm 294.0 W/m2 CLR
08:45 -3.8 °C -8.8 °C 34405.1 hPa Calm     57 % 0 mm 309.0 W/m2 CLR
08:50 -3.6 °C -8.5 °C 34405.1 hPa Calm     58 % 0 mm 325.0 W/m2 CLR
08:55 -3.3 °C -8.3 °C 34405.1 hPa Calm     58 % 0 mm 339.0 W/m2 CLR
09:00 -3.2 °C -8.2 °C 34405.1 hPa Calm     58 % 0 mm 357.0 W/m2 CLR
09:05 -3 °C -8.2 °C 34405.1 hPa Calm     57 % 0 mm 371.0 W/m2 CLR
09:10 -2.9 °C -8 °C 34405.1 hPa Calm     57 % 0 mm 385.0 W/m2 CLR
09:11 -2.9 °C -8.2 °C 34405.1 hPa Calm     56 % 0 mm 388.0 W/m2 CLR
09:16 -2.8 °C -7.9 °C 34405.1 hPa Calm     57 % 0 mm 403.0 W/m2 CLR
09:21 -2.7 °C -8 °C 34405.1 hPa Calm     56 % 0 mm 417.0 W/m2 CLR
09:26 -2.7 °C -7.9 °C 34405.1 hPa Calm     56 % 0 mm 429.0 W/m2 CLR
09:31 -2.6 °C -7.9 °C 34418.7 hPa Calm     56 % 0 mm 446.0 W/m2 CLR
09:36 -2.3 °C -7.8 °C 34405.1 hPa ENE 3.1 km/h 3.1 km/h 55 % 0 mm 461.0 W/m2 CLR
09:41 -2.1 °C -7.7 °C 34405.1 hPa ENE 9 km/h   54 % 0 mm 476.0 W/m2 CLR
09:46 -2 °C -8 °C 34405.1 hPa Calm     52 % 0 mm 490.0 W/m2 CLR
09:51 -1.9 °C -7.9 °C 34405.1 hPa ENE 11.9 km/h 11.9 km/h 52 % 0 mm 508.0 W/m2 CLR
09:56 -1.8 °C -7.9 °C 34405.1 hPa ESE 10.3 km/h 10.3 km/h 52 % 0 mm 520.0 W/m2 CLR
10:01 -1.9 °C -8.1 °C 34405.1 hPa ENE 17.9 km/h 17.9 km/h 51 % 0 mm 534.0 W/m2 CLR
10:06 -1.8 °C -8.1 °C 34405.1 hPa ENE 11.9 km/h 11.9 km/h 50 % 0 mm 548.0 W/m2 CLR
10:11 -1.7 °C -8.1 °C 34405.1 hPa East 15.6 km/h 15.6 km/h 50 % 0 mm 564.0 W/m2 CLR
10:16 -1.7 °C -7.6 °C 34405.1 hPa NE 15.6 km/h 15.6 km/h 53 % 0 mm 577.0 W/m2 CLR
10:21 -1.6 °C -7.7 °C 34405.1 hPa ENE 11.9 km/h 11.9 km/h 51 % 0 mm 592.0 W/m2 CLR
10:26 -1.4 °C -7.9 °C 34405.1 hPa ENE 10.3 km/h 10.3 km/h 49 % 0 mm 605.0 W/m2 CLR
10:31 -1.2 °C -8.7 °C 34405.1 hPa East 11.9 km/h 11.9 km/h 44 % 0 mm 622.0 W/m2 CLR
10:36 -1.1 °C -8.7 °C 34405.1 hPa East 20.9 km/h 20.9 km/h 44 % 0 mm 635.0 W/m2 CLR
10:41 -1.1 °C -9.3 °C 34405.1 hPa East 15 km/h 15 km/h 41 % 0 mm 645.0 W/m2 CLR
10:47 -1 °C -9.2 °C 34405.1 hPa ESE 17.9 km/h 17.9 km/h 41 % 0 mm 659.0 W/m2 CLR
10:52 -1 °C -9.2 °C 34405.1 hPa ESE 20.8 km/h 20.8 km/h 41 % 0 mm 673.0 W/m2 CLR
10:57 -0.9 °C -9.3 °C 34395 hPa ESE 25.9 km/h 25.9 km/h 40 % 0 mm 684.0 W/m2 CLR
11:02 -0.8 °C -9.4 °C 34405.1 hPa ESE 18.2 km/h 18.2 km/h 39 % 0 mm 696.0 W/m2 CLR
11:07 -0.7 °C -9.6 °C 34405.1 hPa ESE 23.8 km/h 23.8 km/h 38 % 0 mm 707.0 W/m2 CLR
11:12 -0.7 °C -9.6 °C 34405.1 hPa ENE 15 km/h 15 km/h 38 % 0 mm 719.0 W/m2 CLR
11:17 -0.5 °C -9.2 °C 34405.1 hPa NE 23.8 km/h 23.8 km/h 39 % 0 mm 728.0 W/m2 CLR
11:22 -0.4 °C -8.9 °C 34405.1 hPa ESE 23.8 km/h 23.8 km/h 40 % 0 mm 738.0 W/m2 CLR
11:27 -0.4 °C -9.1 °C 34405.1 hPa ESE 26.9 km/h 26.9 km/h 39 % 0 mm 747.0 W/m2 CLR
11:32 -0.4 °C -8.7 °C 34405.1 hPa ESE 20.9 km/h 20.9 km/h 41 % 0 mm 761.0 W/m2 CLR
11:37 -0.4 °C -8.7 °C 34405.1 hPa ESE 35.7 km/h 35.7 km/h 41 % 0 mm 770.0 W/m2 CLR
11:42 -0.4 °C -8.4 °C 34405.1 hPa ESE 47.6 km/h 47.6 km/h 42 % 0 mm 780.0 W/m2 CLR
11:47 -0.5 °C -8.5 °C 34405.1 hPa ESE 38.8 km/h 38.8 km/h 42 % 0 mm 791.0 W/m2 CLR
11:52 -0.4 °C -8.4 °C 34395 hPa ESE 35.7 km/h 35.7 km/h 42 % 0 mm 798.0 W/m2 CLR
11:57 -0.3 °C -8.4 °C 34405.1 hPa ESE 44.1 km/h 44.1 km/h 42 % 0 mm 807.0 W/m2 CLR
12:02 -0.5 °C -8.5 °C 34395 hPa SE 50.7 km/h 50.7 km/h 42 % 0 mm 812.0 W/m2 CLR
12:07 -0.4 °C -8.2 °C 34395 hPa ESE 32.8 km/h 32.8 km/h 43 % 0 mm 824.0 W/m2 CLR
12:12 -0.2 °C -8.7 °C 34395 hPa SE 38.8 km/h 38.8 km/h 40 % 0 mm 835.0 W/m2 CLR
12:17 -0.2 °C -8.7 °C 34395 hPa East 44.7 km/h 44.7 km/h 40 % 0 mm 838.0 W/m2 CLR
12:22 -0.2 °C -8.3 °C 34395 hPa ESE 50.7 km/h 50.7 km/h 42 % 0 mm 844.0 W/m2 CLR
12:27 -0.1 °C -8.6 °C 34395 hPa East 35.7 km/h 35.7 km/h 40 % 0 mm 846.0 W/m2 CLR
12:32 -0.2 °C -8.7 °C 34395 hPa ESE 35.7 km/h 35.7 km/h 40 % 0 mm 860.0 W/m2 CLR
12:37 -0.1 °C -8.3 °C 34395 hPa ESE 38.8 km/h 38.8 km/h 41 % 0 mm 867.0 W/m2 CLR
12:42 -0.1 °C -8.1 °C 34395 hPa East 35.7 km/h 35.7 km/h 42 % 0 mm 868.0 W/m2 CLR
12:47 0.1 °C -8.2 °C 34395 hPa East 38.8 km/h 38.8 km/h 41 % 0 mm 874.0 W/m2 CLR
12:52 0.1 °C -8.2 °C 34395 hPa ESE 44.7 km/h 44.7 km/h 41 % 0 mm 874.0 W/m2 CLR
12:57 -0.1 °C -8.3 °C 34395 hPa ESE 44.1 km/h 44.1 km/h 41 % 0 mm 884.0 W/m2 CLR
13:02 -0.1 °C -8.1 °C 34395 hPa ESE 51.8 km/h 51.8 km/h 42 % 0 mm 884.0 W/m2 CLR
13:07 0 °C -7.9 °C 34395 hPa SE 41.7 km/h 41.7 km/h 43 % 0 mm 891.0 W/m2 CLR
13:08 0 °C -7.9 °C 34395 hPa SSE 38.8 km/h 38.8 km/h 43 % 0 mm 891.0 W/m2 CLR
13:13 0.1 °C -8 °C 34395 hPa ESE 41.7 km/h 41.7 km/h 42 % 0 mm 895.0 W/m2 CLR
13:18 0.1 °C -7.8 °C 34395 hPa ESE 47.6 km/h 47.6 km/h 43 % 0 mm 898.0 W/m2 CLR
13:23 0.2 °C -7.8 °C 34395 hPa ESE 41.7 km/h 41.7 km/h 42 % 0 mm 904.0 W/m2 CLR
13:28 0.3 °C -7.6 °C 34384.8 hPa SE 20.9 km/h 20.9 km/h 43 % 0 mm 904.0 W/m2 CLR
13:34 0.2 °C -8.1 °C 34384.8 hPa ESE 53.6 km/h 53.6 km/h 41 % 0 mm 905.0 W/m2 CLR
13:39 0.2 °C -7.7 °C 34384.8 hPa East 35.7 km/h 35.7 km/h 43 % 0 mm 911.0 W/m2 CLR
13:44 0.2 °C -7.6 °C 34384.8 hPa East 50.7 km/h 50.7 km/h 43 % 0 mm 911.0 W/m2 CLR
13:49 0.3 °C -7.7 °C 34384.8 hPa ESE 36.2 km/h 36.2 km/h 42 % 0 mm 914.0 W/m2 CLR
13:54 0.4 °C -7.7 °C 34384.8 hPa ESE 41.7 km/h 41.7 km/h 42 % 0 mm 912.0 W/m2 CLR
13:59 0.6 °C -8.2 °C 34384.8 hPa South 35.7 km/h 35.7 km/h 39 % 0 mm 916.0 W/m2 CLR
14:04 0.5 °C -7.8 °C 34384.8 hPa East 38.8 km/h 38.8 km/h 41 % 0 mm 914.0 W/m2 CLR
14:09 0.6 °C -7.9 °C 34384.8 hPa SE 47.6 km/h 47.6 km/h 40 % 0 mm 916.0 W/m2 CLR
14:14 0.6 °C -7.6 °C 34384.8 hPa SE 44.7 km/h 44.7 km/h 42 % 0 mm 916.0 W/m2 CLR
14:19 0.4 °C -7.7 °C 34384.8 hPa ESE 50.7 km/h 50.7 km/h 42 % 0 mm 912.0 W/m2 CLR
14:24 0.4 °C -7.7 °C 34371.3 hPa ESE 47.6 km/h 47.6 km/h 42 % 0 mm 909.0 W/m2 CLR
14:29 0.3 °C -7.6 °C 34371.3 hPa ESE 47.6 km/h 47.6 km/h 43 % 0 mm 905.0 W/m2 CLR
14:34 0.4 °C -7.6 °C 34371.3 hPa ESE 53.6 km/h 53.6 km/h 43 % 0 mm 904.0 W/m2 CLR
14:39 0.3 °C -7.6 °C 34371.3 hPa East 35.7 km/h 35.7 km/h 43 % 0 mm 900.0 W/m2 CLR
14:44 0.4 °C -7.7 °C 34371.3 hPa ESE 44.7 km/h 44.7 km/h 42 % 0 mm 898.0 W/m2 CLR
14:49 0.4 °C -7.3 °C 34371.3 hPa East 50.7 km/h 50.7 km/h 44 % 0 mm 895.0 W/m2 CLR
14:54 0.5 °C -7.6 °C 34371.3 hPa ESE 44.7 km/h 44.7 km/h 42 % 0 mm 893.0 W/m2 CLR
14:59 0.3 °C -7.6 °C 34371.3 hPa ESE 50.7 km/h 50.7 km/h 43 % 0 mm 888.0 W/m2 CLR
15:04 0.4 °C -7.5 °C 34371.3 hPa ESE 53.6 km/h 53.6 km/h 43 % 0 mm 886.0 W/m2 CLR
15:09 0.4 °C -7.5 °C 34371.3 hPa ESE 49.2 km/h 49.2 km/h 43 % 0 mm 882.0 W/m2 CLR
15:14 0.3 °C -7.6 °C 34361.1 hPa ESE 50.7 km/h 50.7 km/h 43 % 0 mm 872.0 W/m2 CLR
15:19 0.4 °C -7.3 °C 34361.1 hPa East 32.8 km/h 32.8 km/h 44 % 0 mm 863.0 W/m2 CLR
15:24 0.6 °C -7.6 °C 34361.1 hPa SE 47.6 km/h 47.6 km/h 42 % 0 mm 865.0 W/m2 CLR
15:29 0.5 °C -8 °C 34361.1 hPa ESE 50.7 km/h 50.7 km/h 40 % 0 mm 856.0 W/m2 CLR
15:31 0.6 °C -8 °C 34361.1 hPa ESE 59.5 km/h 59.5 km/h 40 % 0 mm 853.0 W/m2 CLR
15:36 0.7 °C -7.9 °C 34361.1 hPa SSE 38.8 km/h 38.8 km/h 40 % 0 mm 842.0 W/m2 CLR
15:41 0.7 °C -7.9 °C 34361.1 hPa SE 50.7 km/h 50.7 km/h 40 % 0 mm 835.0 W/m2 CLR
15:46 0.7 °C -7.9 °C 34361.1 hPa SE 50.7 km/h 50.7 km/h 40 % 0 mm 831.0 W/m2 CLR
15:51 0.6 °C -7.9 °C 34361.1 hPa SE 50.7 km/h 50.7 km/h 40 % 0 mm 828.0 W/m2 CLR
15:56 0.5 °C -8 °C 34361.1 hPa ESE 57 km/h 57 km/h 40 % 0 mm 817.0 W/m2 CLR
16:01 0.5 °C -7.8 °C 34361.1 hPa East 56.6 km/h 56.6 km/h 41 % 0 mm 810.0 W/m2 CLR
16:06 0.4 °C -7.7 °C 34361.1 hPa ESE 56.6 km/h 56.6 km/h 42 % 0 mm 805.0 W/m2 CLR
16:11 0.4 °C -7.7 °C 34361.1 hPa SSE 47.6 km/h 47.6 km/h 42 % 0 mm 791.0 W/m2 CLR
16:16 0.4 °C -7.7 °C 34361.1 hPa SE 56.6 km/h 56.6 km/h 42 % 0 mm 786.0 W/m2 CLR
16:21 0.4 °C -7.7 °C 34361.1 hPa SE 57 km/h 57 km/h 42 % 0 mm 775.0 W/m2 CLR
16:26 0.3 °C -7.7 °C 34361.1 hPa ESE 35.7 km/h 35.7 km/h 42 % 0 mm 763.0 W/m2 CLR
16:31 0.4 °C -7.5 °C 34361.1 hPa SE 56.6 km/h 56.6 km/h 43 % 0 mm 752.0 W/m2 CLR
16:36 0.4 °C -7.6 °C 34361.1 hPa ESE 41.4 km/h 41.4 km/h 43 % 0 mm 742.0 W/m2 CLR
16:41 0.4 °C -7.4 °C 34347.6 hPa SSE 38.8 km/h 38.8 km/h 43 % 0 mm 731.0 W/m2 CLR
16:46 0.4 °C -7.5 °C 34347.6 hPa SE 44.7 km/h 44.7 km/h 43 % 0 mm 717.0 W/m2 CLR
16:51 0.2 °C -7.4 °C 34361.1 hPa SE 50.7 km/h 50.7 km/h 44 % 0 mm 710.0 W/m2 CLR
16:56 0.3 °C -7.2 °C 34361.1 hPa ESE 29.8 km/h 29.8 km/h 45 % 0 mm 696.0 W/m2 CLR
17:01 0.3 °C -7.3 °C 34361.1 hPa SE 38.8 km/h 38.8 km/h 44 % 0 mm 684.0 W/m2 CLR
17:06 0.3 °C -7.2 °C 34361.1 hPa SE 38.8 km/h 38.8 km/h 45 % 0 mm 671.0 W/m2 CLR
17:11 0.1 °C -7.2 °C 34347.6 hPa SE 50.7 km/h 50.7 km/h 46 % 0 mm 657.0 W/m2 CLR
17:16 0.1 °C -6.8 °C 34347.6 hPa SE 20.9 km/h 20.9 km/h 48 % 0 mm 647.0 W/m2 CLR
17:21 0.1 °C -7.3 °C 34347.6 hPa SE 38.8 km/h 38.8 km/h 45 % 0 mm 631.0 W/m2 CLR
17:26 0.1 °C -7.4 °C 34347.6 hPa ESE 35.7 km/h 35.7 km/h 45 % 0 mm 619.0 W/m2 CLR
17:31 0.2 °C -7.3 °C 34347.6 hPa SE 50.7 km/h 50.7 km/h 45 % 0 mm 606.0 W/m2 CLR
17:36 0.2 °C -7.3 °C 34347.6 hPa SE 50.7 km/h 50.7 km/h 45 % 0 mm 592.0 W/m2 CLR
17:41 0.1 °C -7.4 °C 34337.4 hPa SE 38.8 km/h 38.8 km/h 45 % 0 mm 578.0 W/m2 CLR
17:46 0.1 °C -7.6 °C 34337.4 hPa SE 53.6 km/h 53.6 km/h 44 % 0 mm 573.0 W/m2 CLR
17:51 0.2 °C -7.6 °C 34337.4 hPa SE 44.1 km/h 44.1 km/h 44 % 0 mm 557.0 W/m2 CLR
17:56 0.1 °C -7.6 °C 34337.4 hPa ESE 50.7 km/h 50.7 km/h 44 % 0 mm 545.0 W/m2 CLR
18:01 -0.1 °C -7.7 °C 34337.4 hPa SSE 35.7 km/h 35.7 km/h 44 % 0 mm 531.0 W/m2 CLR
18:06 0 °C -7.9 °C 34337.4 hPa SE 41.7 km/h 41.7 km/h 43 % 0 mm 517.0 W/m2 CLR
18:11 0 °C -7.9 °C 34337.4 hPa ESE 38.8 km/h 38.8 km/h 43 % 0 mm 501.0 W/m2 CLR
18:16 -0.1 °C -7.9 °C 34337.4 hPa SE 50.7 km/h 50.7 km/h 43 % 0 mm 487.0 W/m2 CLR
18:21 -0.1 °C -7.9 °C 34337.4 hPa SE 38.8 km/h 38.8 km/h 43 % 0 mm 473.0 W/m2 CLR
18:26 -0.1 °C -7.9 °C 34337.4 hPa SSE 35.7 km/h 35.7 km/h 43 % 0 mm 461.0 W/m2 CLR
18:31 -0.1 °C -8.2 °C 34337.4 hPa ESE 44.7 km/h 44.7 km/h 42 % 0 mm 443.0 W/m2 CLR
18:36 -0.2 °C -8.3 °C 34337.4 hPa SSE 56.6 km/h 56.6 km/h 42 % 0 mm 429.0 W/m2 CLR
18:41 -0.3 °C -8.3 °C 34337.4 hPa SE 56.6 km/h 56.6 km/h 42 % 0 mm 415.0 W/m2 CLR
18:47 -0.2 °C -8.5 °C 34337.4 hPa South 32.8 km/h 32.8 km/h 41 % 0 mm 403.0 W/m2 CLR
18:52 -0.2 °C -8.4 °C 34337.4 hPa SSE 31.1 km/h 31.1 km/h 41 % 0 mm 385.0 W/m2 CLR
18:57 -0.2 °C -8.7 °C 34337.4 hPa SE 38.8 km/h 38.8 km/h 40 % 0 mm 371.0 W/m2 CLR
19:02 -0.2 °C -8.7 °C 34337.4 hPa SE 32.8 km/h 32.8 km/h 40 % 0 mm 355.0 W/m2 CLR
19:06 -0.2 °C -8.7 °C 34347.6 hPa SE 41.7 km/h 41.7 km/h 40 % 0 mm 343.0 W/m2 CLR
19:12 -0.4 °C -8.8 °C 34347.6 hPa SSE 38.8 km/h 38.8 km/h 40 % 0 mm 327.0 W/m2 CLR
19:17 -0.3 °C -8.8 °C 34347.6 hPa SSE 29.8 km/h 29.8 km/h 40 % 0 mm 309.0 W/m2 CLR
19:21 -0.4 °C -9.1 °C 34347.6 hPa SSE 41.7 km/h 41.7 km/h 39 % 0 mm 297.0 W/m2 CLR
19:27 -0.4 °C -9.1 °C 34347.6 hPa South 29.8 km/h 29.8 km/h 39 % 0 mm 281.0 W/m2 CLR
19:32 -0.4 °C -9.3 °C 34347.6 hPa SSE 36.2 km/h 36.2 km/h 38 % 0 mm 269.0 W/m2 CLR
19:37 -0.4 °C -9.7 °C 34347.6 hPa South 32.8 km/h 32.8 km/h 36 % 0 mm 248.0 W/m2 CLR
19:42 -0.5 °C -9.8 °C 34361.1 hPa South 32.8 km/h 32.8 km/h 36 % 0 mm 97.0 W/m2 CLR
19:47 -0.7 °C -9.9 °C 34361.1 hPa South 29.8 km/h 29.8 km/h 36 % 0 mm 100.0 W/m2 CLR
19:52 -0.7 °C -10.3 °C 34361.1 hPa South 38.8 km/h 38.8 km/h 35 % 0 mm 58.0 W/m2 CLR
19:57 -0.9 °C -10.2 °C 34361.1 hPa SSW 41.7 km/h 41.7 km/h 36 % 0 mm 49.0 W/m2 FEW
20:02 -1 °C -10.3 °C 34361.1 hPa SSW 23.8 km/h 23.8 km/h 36 % 0 mm 39.0 W/m2 SCT
20:07 -1.1 °C -10.1 °C 34361.1 hPa SSE 17.9 km/h 17.9 km/h 37 % 0 mm 35.0 W/m2 BKN
20:12 -1.1 °C -10.2 °C 34361.1 hPa SSE 41.7 km/h 41.7 km/h 37 % 0 mm 33.0 W/m2 BKN
20:17 -1.2 °C -10.2 °C 34361.1 hPa South 38.8 km/h 38.8 km/h 37 % 0 mm 32.0 W/m2 BKN
20:22 -1.3 °C -10.3 °C 34361.1 hPa SSW 29.8 km/h 29.8 km/h 37 % 0 mm 32.0 W/m2 BKN
20:27 -1.3 °C -10.2 °C 34361.1 hPa SSE 35.7 km/h 35.7 km/h 38 % 0 mm 30.0 W/m2 BKN
20:32 -1.4 °C -10.2 °C 34361.1 hPa SSE 46.7 km/h 46.7 km/h 38 % 0 mm 28.0 W/m2 BKN
20:37 -1.5 °C -10.2 °C 34371.3 hPa SSE 38.8 km/h 38.8 km/h 38 % 0 mm 26.0 W/m2 BKN
20:42 -1.6 °C -10.1 °C 34371.3 hPa SSE 35.7 km/h 35.7 km/h 39 % 0 mm 25.0 W/m2 BKN
20:47 -1.6 °C -10.2 °C 34371.3 hPa SE 50.7 km/h 50.7 km/h 39 % 0 mm 23.0 W/m2 BKN
20:52 -1.7 °C -10.2 °C 34371.3 hPa South 35.7 km/h 35.7 km/h 39 % 0 mm 21.0 W/m2 BKN
20:53 -1.7 °C -10.2 °C 34371.3 hPa South 32.8 km/h 32.8 km/h 39 % 0 mm 19.0 W/m2 BKN
20:58 -1.7 °C -10.2 °C 34371.3 hPa SSE 29.8 km/h 29.8 km/h 39 % 0 mm 18.0 W/m2 BKN
21:03 -1.8 °C -10.1 °C 34384.8 hPa South 29.8 km/h 29.8 km/h 40 % 0 mm 16.0 W/m2 BKN
21:08 -1.8 °C -10.2 °C 34384.8 hPa South 29.8 km/h 29.8 km/h 40 % 0 mm 14.0 W/m2 BKN
21:13 -1.9 °C -10.2 °C 34384.8 hPa South 23.3 km/h 23.3 km/h 40 % 0 mm 11.0 W/m2 BKN
21:18 -2 °C -10.2 °C 34384.8 hPa SSE 20.8 km/h 20.8 km/h 40 % 0 mm 9.0 W/m2 BKN
21:23 -2.1 °C -10.3 °C 34384.8 hPa SSE 15 km/h 15 km/h 40 % 0 mm 7.0 W/m2 BKN
21:28 -2.1 °C -10.4 °C 34384.8 hPa SSE 23.8 km/h 23.8 km/h 40 % 0 mm 0.0 W/m2 OVC
21:33 -2.2 °C -10.4 °C 34384.8 hPa South 9 km/h 9 km/h 40 % 0 mm 0.0 W/m2 OVC
21:38 -2.2 °C -10.4 °C 34384.8 hPa South 11.9 km/h 11.9 km/h 40 % 0 mm 0.0 W/m2 OVC
21:43 -2.3 °C -10.3 °C 34395 hPa South 20.9 km/h 22.2 km/h 41 % 0 mm 0.0 W/m2 OVC
21:48 -2.3 °C -10.4 °C 34384.8 hPa SSE 20.9 km/h 20.9 km/h 41 % 0 mm 0.0 W/m2 CLR
21:53 -2.4 °C -10.4 °C 34395 hPa SSE 23.8 km/h 23.8 km/h 41 % 0 mm 0.0 W/m2 CLR
21:59 -2.4 °C -10.5 °C 34395 hPa SE 10.3 km/h 10.3 km/h 41 % 0 mm 0.0 W/m2 CLR
22:03 -2.5 °C -10.5 °C 34395 hPa SSE 17.9 km/h 17.9 km/h 41 % 0 mm 0.0 W/m2 CLR
22:08 -2.6 °C -10.6 °C 34395 hPa SSE 23.8 km/h 23.8 km/h 41 % 0 mm 0.0 W/m2 CLR
22:13 -2.6 °C -10.6 °C 34395 hPa Calm     41 % 0 mm 0.0 W/m2 CLR
22:18 -2.6 °C -10.6 °C 34405.1 hPa SSE 23.8 km/h 23.8 km/h 41 % 0 mm 0.0 W/m2 CLR
22:23 -2.6 °C -10.6 °C 34405.1 hPa South 23.8 km/h 23.8 km/h 41 % 0 mm 0.0 W/m2 CLR
22:28 -2.6 °C -10.6 °C 34418.7 hPa SE 23.8 km/h 23.8 km/h 41 % 0 mm 0.0 W/m2 CLR
22:33 -2.6 °C -10.6 °C 34418.7 hPa Calm     41 % 0 mm 0.0 W/m2 CLR
22:39 -2.7 °C -10.7 °C 34418.7 hPa Calm     41 % 0 mm 0.0 W/m2 CLR
22:44 -2.7 °C -10.4 °C 34418.7 hPa SE 3.1 km/h   42 % 0 mm 0.0 W/m2 CLR
22:49 -2.7 °C -10.7 °C 34418.7 hPa South 17.9 km/h 17.9 km/h 41 % 0 mm 0.0 W/m2 CLR
22:54 -2.7 °C -10.7 °C 34418.7 hPa Calm     41 % 0 mm 0.0 W/m2 CLR
22:59 -2.8 °C -10.6 °C 34418.7 hPa Calm     42 % 0 mm 0.0 W/m2 CLR
23:04 -2.8 °C -10.6 °C 34428.8 hPa Calm     42 % 0 mm 0.0 W/m2 CLR
23:09 -2.9 °C -10.7 °C 34428.8 hPa Calm     42 % 0 mm 0.0 W/m2 CLR
23:14 -2.9 °C -10.7 °C 34428.8 hPa Calm     42 % 0 mm 0.0 W/m2 CLR
23:19 -2.9 °C -10.7 °C 34442.4 hPa Calm     42 % 0 mm 0.0 W/m2 CLR
23:24 -3 °C -10.6 °C 34428.8 hPa SE 11.9 km/h 11.9 km/h 43 % 0 mm 0.0 W/m2 CLR
23:29 -3 °C -10.6 °C 34442.4 hPa SE 9 km/h 9 km/h 43 % 0 mm 0.0 W/m2 CLR
23:34 -3.1 °C -10.6 °C 34442.4 hPa Calm     43 % 0 mm 0.0 W/m2 CLR
23:39 -3.1 °C -10.7 °C 34442.4 hPa Calm     43 % 0 mm 0.0 W/m2 CLR
23:40 -3.1 °C -10.7 °C 34442.4 hPa Calm     43 % 0 mm 0.0 W/m2 CLR
23:45 -3.1 °C -10.7 °C 34442.4 hPa Calm     43 % 0 mm 0.0 W/m2 CLR
23:50 -3.1 °C -10.9 °C 34442.4 hPa Calm     42 % 0 mm 0.0 W/m2 CLR
23:55 -3.1 °C -10.9 °C 34442.4 hPa Calm     42 % 0 mm 0.0 W/m2 CLR
Lo Temps de Massalio
Compliments of Weather Underground - 1.25 mb